FW0523 Weather Reports


Display with metric or nautical units.
time (UTC)temp
F
wind
direction
speed
MPH
gust
MPH
rain 1hr
in
rain 24hr
in
rain mn
in
humidity
%
barometer
mb
20240227024902 47 312 1.0 8.0 0.00 0.00 0.00 32 1008.7
20240227023903 47 305 1.0 14.0 0.00 0.00 0.00 32 1008.6
20240227022904 47 62 3.0 9.0 0.00 0.00 0.00 32 1008.6
20240227021902 47 360 4.0 9.0 0.00 0.00 0.00 32 1009.0
20240227020902 47 227 4.0 11.0 0.00 0.00 0.00 31 1009.0
20240227015903 47 144 1.0 6.0 0.00 0.00 0.00 31 1009.1
20240227014904 47 96 0.0 10.0 0.00 0.00 0.00 30 1008.7
20240227012803 48 220 3.0 10.0 0.00 0.00 0.00 30 1009.1
20240227011804 48 154 5.0 9.0 0.00 0.00 0.00 29 1008.8
20240227010802 48 200 0.0 16.0 0.00 0.00 0.00 29 1009.1
20240227005803 48 360 0.0 12.0 0.00 0.00 0.00 30 1008.8
20240227004804 49 130 8.0 16.0 0.00 0.00 0.00 29 1008.6
20240227001603 49 305 2.0 21.0 0.00 0.00 0.00 27 1009.2
20240227000604 49 151 2.0 12.0 0.00 0.00 0.00 28 1009.2
20240226235602 50 51 1.0 11.0 0.00 0.00 0.00 26 1009.0
20240226234603 49 332 0.0 15.0 0.00 0.00 0.00 26 1009.4
20240226233603 49 328 7.0 17.0 0.00 0.00 0.00 27 1009.4
20240226231503 50 200 2.0 16.0 0.00 0.00 0.00 26 1010.3
20240226230503 50 11 2.0 13.0 0.00 0.00 0.00 27 1010.4
20240226225504 50 162 8.0 11.0 0.00 0.00 0.00 26 1010.4
20240226224504 50 24 13.0 16.0 0.00 0.00 0.00 25 1010.6
20240226223502 50 161 6.0 12.0 0.00 0.00 0.00 26 1011.0
20240226220302 50 335 3.0 11.0 0.00 0.00 0.00 26 1011.8
20240226215306 51 128 4.0 17.0 0.00 0.00 0.00 24 1011.9
20240226214303 51 360 5.0 11.0 0.00 0.00 0.00 23 1011.6
20240226213302 51 7 3.0 9.0 0.00 0.00 0.00 21 1011.8
20240226211202 50 360 6.0 14.0 0.00 0.00 0.00 20 1012.0
20240226210203 50 137 10.0 26.0 0.00 0.00 0.00 21 1012.2
20240226205203 51 55 6.0 8.0 0.00 0.00 0.00 19 1012.2
20240226204204 50 20 3.0 9.0 0.00 0.00 0.00 20 1012.7
20240226203202 51 344 3.0 12.0 0.00 0.00 0.00 20 1012.7
20240226202203 51 360 2.0 12.0 0.00 0.00 0.00 22 1013.0
20240226195003 52 169 5.0 13.0 0.00 0.00 0.00 22 1013.5
20240226194004 52 16 11.0 13.0 0.00 0.00 0.00 21 1013.4
20240226193002 53 128 7.0 5.0 0.00 0.00 0.00 22 1013.5
20240226192003 52 360 2.0 10.0 0.00 0.00 0.00 24 1013.9
20240226191003 51 0 5.0 8.0 0.00 0.00 0.00 23 1014.0
20240226190004 50 360 2.0 16.0 0.00 0.00 0.00 25 1014.4
20240226185005 50 3 6.0 12.0 0.00 0.00 0.00 23 1014.6
20240226184002 49 56 4.0 17.0 0.00 0.00 0.00 26 1015.0
20240226181902 49 35 9.0 10.0 0.00 0.00 0.00 28 1015.2
20240226180903 49 62 3.0 7.0 0.00 0.00 0.00 30 1015.4
20240226175903 49 38 5.0 9.0 0.00 0.00 0.00 30 1015.5
20240226174904 48 100 4.0 11.0 0.00 0.00 0.00 30 1015.8
20240226173904 49 80 2.0 7.0 0.00 0.00 0.00 30 1015.6
20240226172903 49 195 0.0 6.0 0.00 0.00 0.00 32 1015.9
20240226170803 47 360 2.0 11.0 0.00 0.00 0.00 33 1016.2
20240226165803 47 210 2.0 15.0 0.00 0.00 0.00 33 1016.2
20240226164804 47 18 9.0 18.0 0.00 0.00 0.00 33 1016.2
20240226163804 47 360 9.0 22.0 0.00 0.00 0.00 34 1015.9
20240226162802 48 360 4.0 8.0 0.00 0.00 0.00 35 1015.8
20240226160702 47 110 0.0 5.0 0.00 0.00 0.00 37 1015.8
20240226154603 46 169 4.0 10.0 0.00 0.00 0.00 39 1015.9
20240226153603 46 137 1.0 10.0 0.00 0.00 0.00 40 1015.9
20240226151503 45 188 3.0 9.0 0.00 0.00 0.00 43 1015.9
20240226150504 44 212 4.0 7.0 0.00 0.00 0.00 44 1016.3
20240226144404 44 360 2.0 9.0 0.00 0.00 0.00 48 1016.0
20240226143402 43 61 0.0 6.0 0.00 0.00 0.00 48 1016.2
20240226142403 42 160 1.0 8.0 0.00 0.00 0.00 51 1016.0
20240226141404 41 360 1.0 3.0 0.00 0.00 0.00 58 1015.9
20240226140402 41 360 2.0 6.0 0.00 0.00 0.00 58 1015.9
20240226135403 42 192 0.0 4.0 0.00 0.00 0.00 58 1015.5
20240226134403 42 82 0.0 8.0 0.00 0.00 0.00 58 1015.6
20240226132306 43 308 1.0 4.0 0.00 0.00 0.00 56 1015.6
20240226125104 44 148 1.0 6.0 0.00 0.00 0.00 54 1015.6
20240226124104 44 42 4.0 7.0 0.00 0.00 0.00 50 1015.8
20240226123103 44 28 3.0 9.0 0.00 0.00 0.00 48 1015.9
20240226122103 45 360 1.0 4.0 0.00 0.00 0.00 55 1015.6
20240226121104 45 124 4.0 7.0 0.00 0.00 0.00 49 1015.5
20240226120102 42 13 4.0 11.0 0.00 0.00 0.00 60 1015.4
20240226115102 42 360 2.0 8.0 0.00 0.00 0.00 66 1015.5
20240226114103 42 360 0.0 9.0 0.00 0.00 0.00 65 1015.2
20240226112003 42 360 3.0 5.0 0.00 0.00 0.00 66 1014.8
20240226111004 41 174 4.0 9.0 0.00 0.00 0.00 68 1014.8
20240226104904 41 134 2.0 8.0 0.00 0.00 0.00 70 1015.5
20240226103902 41 124 0.0 9.0 0.00 0.00 0.00 70 1015.6
20240226102903 41 306 1.0 9.0 0.00 0.00 0.00 70 1015.8
20240226101904 41 202 1.0 8.0 0.00 0.00 0.00 71 1015.6
20240226094704 41 360 3.0 6.0 0.00 0.00 0.00 73 1016.3
20240226093702 41 308 2.0 6.0 0.00 0.00 0.00 75 1016.4
20240226092703 41 360 4.0 10.0 0.00 0.00 0.00 76 1016.8
20240226091703 41 315 2.0 9.0 0.00 0.00 0.00 77 1016.7
20240226090704 41 360 2.0 6.0 0.00 0.00 0.00 78 1017.1
20240226085702 41 52 1.0 9.0 0.00 0.00 0.00 78 1017.2
20240226084703 40 360 2.0 9.0 0.00 0.00 0.00 79 1017.2
20240226083704 41 360 2.0 10.0 0.00 0.00 0.00 78 1017.5
20240226082704 41 227 0.0 9.0 0.00 0.00 0.00 78 1017.8
20240226081702 41 360 0.0 9.0 0.00 0.00 0.00 78 1017.9
20240226074505 41 144 2.0 9.0 0.00 0.00 0.00 77 1018.7
20240226073503 41 323 0.0 3.0 0.00 0.00 0.00 77 1018.9
20240226072503 41 92 0.0 9.0 0.00 0.00 0.00 76 1019.3
20240226071504 41 38 0.0 0.0 0.00 0.00 0.00 75 1019.6
20240226065403 42 330 0.0 4.0 0.00 0.00 0.00 74 1019.9
20240226064405 42 93 0.0 2.0 0.00 0.00 0.00 71 1020.1
20240226063404 43 150 0.0 8.0 0.00 0.00 0.08 68 1020.7
20240226062404 44 116 4.0 8.0 0.00 0.00 0.07 66 1020.8
20240226061405 45 360 1.0 9.0 0.00 0.00 0.07 62 1021.1
20240226053104 48 360 0.0 4.0 0.00 0.00 0.07 44 1019.9
20240226052102 48 360 1.0 9.0 0.00 0.00 0.07 42 1020.0
20240226050003 48 89 5.0 7.0 0.00 0.00 0.07 42 1020.3
20240226045003 49 360 1.0 10.0 0.00 0.00 0.07 40 1020.3
20240226042903 49 148 2.0 9.0 0.00 0.00 0.07 38 1020.3
20240226041904 49 360 4.0 16.0 0.00 0.00 0.07 38 1020.4
20240226040904 49 360 0.0 6.0 0.00 0.00 0.07 36 1020.1
20240226035903 49 328 5.0 15.0 0.00 0.00 0.07 36 1020.1
20240226033803 49 206 2.0 7.0 0.00 0.00 0.07 36 1020.0
20240226032803 49 318 2.0 9.0 0.00 0.00 0.07 36 1020.1
20240226031804 49 360 1.0 10.0 0.00 0.00 0.07 36 1020.1
20240226025704 49 14 3.0 20.0 0.00 0.00 0.07 36 1020.3